Regional Weather Roundup
Issued by NWS

Home | Current Version | Previous Version | Graphics & Text | Print | Product List | Glossary On
Versions: 1 2 3 4 5 6 7 8 9 10 11 12 13 14 15 16 17 18 19 20 21 22 23 24 25 26 27 28 29 30 31 32 33 34 35 36 37 38 39 40 41 42 43 44 45 46 47 48 49 50
000
ASUS43 KLMK 181510
RWRKY
KENTUCKY REGIONAL WEATHER ROUNDUP
NATIONAL WEATHER SERVICE LOUISVILLE KY
1100 AM EDT SAT APR 18 2015

NOTE "FAIR" INDICATES FEW OR NO CLOUDS BELOW 12,000 FEET
WITH NO SIGNIFICANT WEATHER AND/OR OBSTRUCTIONS TO VISIBILITY.

KYZ001>023-026-027-061>063-070>075-181600-
WESTERN AND SOUTH CENTRAL KENTUCKY

CITY           SKY/WX    TMP DP  RH WIND       PRES   REMARKS
PADUCAH        PTSUNNY   72  63  73 E7        29.99S
HENDERSON      PTSUNNY   64  59  82 NE3       30.01R
OWENSBORO      PTSUNNY   71  62  73 E8        30.02R HAZE
HOPKINSVILLE   CLOUDY    69  62  78 E8        30.00R
BOWLING GREEN  PTSUNNY   68  60  75 E6        30.01S
GLASGOW        MOSUNNY   70  61  72 E8        30.01S
$$

KYZ024-025-028>034-038-045-046-053-181600-
NORTH CENTRAL KENTUCKY

CITY           SKY/WX    TMP DP  RH WIND       PRES   REMARKS
LOUISVILLE/SDF CLOUDY    69  54  58 SE3       30.04S
LOUISVILLE/LOU CLOUDY    69  53  56 CALM      30.04S
FORT KNOX      CLOUDY    68  58  70 E7        30.01F
$$

KYZ035>037-039>044-047>052-055>060-089>105-181600-
NORTHEAST KENTUCKY

CITY           SKY/WX    TMP DP  RH WIND       PRES   REMARKS
LEXINGTON      CLOUDY    70  47  43 SE7       30.06R
COVINGTON      PTSUNNY   69  49  48 E3        30.06F
FRANKFORT      CLOUDY    68  54  60 CALM      30.05R
$$

KYZ054-064>069-076>088-106>120-181600-
SOUTHEAST KENTUCKY

CITY           SKY/WX    TMP DP  RH WIND       PRES   REMARKS
JACKSON        PTSUNNY   70  53  54 VRB3      30.05F
LONDON         CLOUDY    70  53  54 E5        30.05R
SOMERSET       CLOUDY    64  57  77 CALM      30.05F
MIDDLESBORO    CLOUDY    64  58  81 CALM      30.06S
MONTICELLO     PTSUNNY   68  63  84 NE6       30.05F
$$




USA.gov is the U.S. government's official web portal to all federal, state and local government web resources and services.